EHI
0 0 0 0 0 0 0 0 0 0 0 0 0 0 0 0 0 0 1 4 6 6 6 5 8 14 17 17 17 15 13 11 9 7 4 1 0 0 0 0 0 0 0 0 0 0 0 0 0
0 0 0 0 0 0 0 0 0 0 0 0 0 0 0 0 0 0 2 4 6 6 6 6 9 13 15 16 16 14 12 10 8 6 3 1 0 0 0 0 0 0 0 0 0 0 0 0 0
0 0 0 0 0 0 0 0 0 0 0 0 0 0 0 0 0 0 1 3 6 6 6 8 11 13 13 15 15 14 12 10 7 4 2 1 0 0 0 0 0 0 0 0 0 0 0 0 0
0 0 0 0 0 0 0 0 0 0 0 0 0 0 0 0 0 0 1 3 6 7 7 10 14 14 13 13 14 13 11 9 6 3 1 0 0 0 0 0 0 0 0 0 0 0 0 0 0
0 0 0 0 0 0 0 0 0 0 0 0 0 0 0 0 1 1 1 3 6 8 7 9 13 13 11 11 12 11 10 8 6 3 1 0 0 0 0 0 0 0 0 0 0 0 0 0 0
0 0 0 0 0 0 0 0 0 0 0 0 0 0 0 0 1 2 1 2 6 8 7 6 9 10 9 10 11 10 9 7 5 3 2 1 1 0 0 0 0 0 0 0 0 0 0 0 0
0 0 0 0 0 0 0 0 0 0 0 0 0 0 0 0 1 1 1 2 5 8 8 6 6 7 7 8 9 9 8 6 4 3 3 2 2 1 0 0 0 0 0 0 0 0 0 0 0
0 0 0 0 0 0 0 0 0 0 0 0 0 0 0 0 0 1 2 3 5 6 7 5 4 5 6 7 8 8 6 5 3 3 3 3 3 1 0 0 0 0 0 0 0 0 0 0 0
0 0 0 0 0 0 0 0 0 0 0 0 0 0 0 0 1 2 3 4 4 4 4 4 4 4 6 6 7 7 6 4 3 3 3 3 3 2 0 0 0 0 0 0 0 0 0 0 0
0 0 0 0 0 0 0 0 0 0 0 0 0 0 0 0 1 2 4 5 4 3 3 3 3 4 6 6 6 6 5 4 3 3 2 2 2 1 0 0 0 0 0 0 0 0 0 0 0
0 0 0 0 0 0 0 0 0 0 0 0 0 0 0 0 0 1 3 4 4 3 3 3 3 4 5 6 6 5 4 3 3 3 2 1 1 0 0 0 0 0 0 0 0 0 0 0 0
0 0 0 0 0 0 0 0 0 0 0 0 0 0 0 0 0 0 1 1 2 2 3 3 3 3 4 5 5 4 3 3 3 3 2 1 0 0 0 0 0 0 0 0 0 0 0 0 0
0 0 0 0 0 0 0 0 0 0 0 0 0 0 0 0 0 0 0 0 0 1 2 3 3 3 3 4 4 3 3 3 3 3 2 1 0 0 0 0 0 0 0 0 0 0 0 0 0
0 0 0 0 0 0 0 0 0 0 0 0 0 0 0 0 0 0 0 0 0 0 1 1 2 3 3 3 2 2 2 3 3 3 2 1 0 0 0 0 0 0 0 0 0 0 0 0 0
0 0 0 0 0 0 0 0 0 0 0 0 0 0 0 0 0 0 0 0 0 0 0 0 1 1 2 3 2 1 1 2 2 2 2 1 0 0 0 0 0 0 0 0 0 0 0 0 0
0 0 0 0 0 0 0 0 0 0 0 0 0 0 0 0 0 0 0 0 0 0 0 0 0 0 1 2 2 1 1 1 1 1 1 0 0 0 0 0 0 0 0 0 0 0 0 0 0
0 0 0 0 0 0 0 0 0 0 0 0 0 0 0 0 0 0 0 0 0 0 0 0 0 0 0 1 1 1 1 0 0 0 0 0 0 0 0 0 0 0 0 0 0 0 0 0 0
0 0 0 0 0 0 0 0 0 0 0 0 0 0 0 0 0 0 0 0 0 0 0 0 0 0 0 0 0 1 1 0 0 0 0 0 0 0 0 0 0 0 0 0 0 0 0 0 0
0 0 0 0 0 0 0 0 0 0 0 0 0 0 0 0 0 0 0 0 0 0 0 0 0 0 0 0 0 0 0 0 0 0 0 0 0 0 0 0 0 0 0 0 0 0 0 0 0
0 0 0 0 0 0 0 0 0 0 0 0 0 0 0 0 0 0 0 0 0 0 0 0 0 0 0 0 0 0 0 0 0 0 0 0 0 0 0 0 0 0 0 0 0 0 0 0 0
0 0 0 0 0 0 0 0 0 0 0 0 0 0 0 0 0 0 0 0 0 0 0 0 0 0 0 0 0 0 0 0 0 0 0 0 0 0 0 0 0 0 0 0 0 0 0 0 0
0 0 0 0 0 0 0 0 0 0 0 0 0 0 0 0 0 0 0 0 0 0 0 0 0 0 0 0 0 0 0 0 0 0 0 0 0 0 0 0 0 0 0 0 0 0 0 0 0
0 0 0 0 0 0 0 0 0 0 0 0 0 0 0 0 0 0 0 0 0 0 0 0 0 0 0 0 0 0 0 0 0 0 0 0 0 0 0 0 0 0 0 0 0 0 0 0 0
0 0 0 0 0 0 0 0 0 0 0 0 0 0 0 0 0 0 0 0 0 0 0 0 0 0 0 0 0 0 0 0 0 0 0 0 0 0 0 0 0 0 0 0 0 0 0 0 0
0 0 0 0 0 0 0 0 0 0 0 0 0 0 0 0 0 0 0 0 0 0 0 0 0 0 0 0 0 0 0 0 0 0 0 0 0 0 0 0 0 0 0 0 0 0 0 0 0
0 0 0 0 0 0 0 0 0 0 0 0 0 0 0 0 0 0 0 0 0 0 0 0 0 0 0 0 0 0 0 0 0 0 0 0 0 0 0 0 0 0 0 0 0 0 0 0 0
0 0 0 0 0 0 0 0 0 0 0 0 0 0 0 0 0 0 0 0 0 0 0 0 0 0 0 0 0 0 0 0 0 0 0 0 0 0 0 0 0 0 0 0 0 0 0 0 0
0 0 0 0 0 0 0 0 0 0 0 0 0 0 0 0 0 0 0 0 0 0 0 0 0 0 0 0 0 0 0 0 0 0 0 0 0 0 0 0 0 0 0 0 0 0 0 0 0
0 0 0 0 0 0 0 0 0 0 0 0 0 0 0 0 0 0 0 0 0 0 0 0 0 0 0 0 0 0 0 0 0 0 0 0 0 0 0 0 0 0 0 0 0 0 0 0 0
0 0 0 0 0 0 0 0 0 0 0 0 0 0 0 0 0 0 0 0 0 0 0 0 0 0 0 0 0 0 0 0 0 0 0 0 0 0 0 0 0 0 0 0 0 0 0 0 0
Wind_Speed
9 5 2 4 6 5 1 3 2 1 1 1 2 6 7 4 3 3 0 2 3 3 3 5 6 7 7 8 9 10 10 11 11 11 11 12 12 12 12 12 11 11 11 11 12 12 12 11 11
4 3 4 5 5 1 3 3 2 2 2 1 4 5 5 3 2 3 1 1 4 4 3 4 6 7 7 8 9 10 10 10 11 11 11 11 11 11 11 11 11 11 11 11 11 11 11 10 10
3 2 4 5 3 5 4 3 3 0 1 2 3 4 4 2 1 1 1 2 4 3 3 4 6 6 7 8 9 10 10 10 10 10 11 11 11 11 11 11 10 10 11 11 10 10 10 9 9
3 4 5 4 3 3 3 2 2 1 3 4 3 4 2 2 0 1 1 4 5 3 2 4 6 6 7 8 8 9 9 10 10 10 10 10 11 11 10 10 10 10 10 10 9 9 9 8 8
4 4 4 1 3 2 2 1 0 1 1 2 3 3 1 3 2 3 4 5 6 4 2 3 5 6 7 8 8 8 9 9 9 9 9 10 11 11 10 10 10 9 9 9 9 8 8 7 8
4 4 4 3 4 2 1 1 0 1 0 1 3 3 1 2 3 3 3 4 5 4 2 2 4 5 6 7 7 7 8 8 8 8 9 10 10 10 10 10 9 9 9 8 8 7 7 7 7
4 4 4 3 2 2 2 0 2 2 0 1 2 4 1 1 1 2 3 4 4 4 3 2 1 2 4 5 6 6 7 7 7 7 8 9 9 9 9 9 8 8 8 7 7 7 6 6 6
4 4 2 2 3 3 2 0 1 2 1 1 2 5 4 3 1 2 4 4 4 4 3 2 1 1 1 3 5 5 6 6 7 7 7 8 8 8 8 7 7 7 7 6 6 6 5 5 5
4 4 3 3 4 3 1 1 2 1 3 2 2 1 2 3 3 4 4 4 4 3 2 2 1 1 1 2 3 4 5 6 7 6 7 6 4 4 4 5 6 6 6 6 5 5 5 4 4
4 3 5 3 3 2 1 1 0 2 3 2 3 3 3 4 4 5 4 3 2 2 1 1 1 1 1 1 2 2 3 3 4 3 4 3 3 3 4 5 6 6 5 5 4 4 4 3 2
3 4 2 1 0 1 1 1 1 3 1 3 3 2 3 3 3 4 3 3 3 2 1 1 1 1 1 1 2 1 2 2 3 4 3 3 3 2 2 2 3 3 3 2 2 2 1 1 1
2 1 1 1 0 1 1 1 1 1 3 3 4 6 5 4 4 4 3 2 1 2 1 1 1 1 2 2 2 2 2 2 2 2 3 3 2 2 2 2 2 1 1 1 1 1 1 1 1
1 1 0 0 1 1 2 0 0 2 2 2 4 5 5 4 3 2 2 2 1 1 1 0 1 2 1 2 2 2 2 2 2 2 2 3 3 3 2 2 2 1 1 1 1 0 0 1 1
2 1 0 1 1 0 1 2 0 4 1 3 4 4 3 3 3 1 1 1 1 1 1 0 1 1 2 2 2 2 2 2 2 2 2 3 2 3 3 2 2 1 1 1 1 1 1 0 0
1 2 2 2 1 1 2 3 3 4 2 3 3 3 3 2 2 2 2 2 2 2 1 1 1 1 1 2 2 2 2 2 3 2 3 3 3 3 3 3 2 1 1 1 1 1 1 1 1
2 2 1 3 2 2 3 5 4 2 4 3 2 2 2 2 1 1 1 1 1 2 2 1 1 2 1 1 2 2 2 2 2 2 3 4 4 4 3 2 2 2 1 1 1 1 1 1 0
1 1 2 3 1 2 3 5 4 1 4 3 3 2 2 1 0 1 1 1 2 2 2 2 2 2 2 1 2 2 2 2 2 2 2 3 4 4 3 2 2 2 2 1 1 1 1 0 0
4 3 2 4 2 1 2 5 5 2 2 3 3 2 2 2 3 2 1 1 2 2 3 2 2 2 2 1 2 2 2 2 1 1 2 3 3 4 3 2 2 2 2 1 1 1 1 0 0
3 2 2 3 2 1 4 6 6 4 2 3 3 3 3 3 2 1 1 1 2 2 3 2 2 2 2 1 1 1 0 1 1 1 2 2 3 4 4 3 2 2 2 2 1 1 1 1 1
2 1 1 3 2 1 3 6 6 5 5 5 5 4 4 2 0 0 1 1 2 2 2 2 2 1 1 1 1 1 1 1 1 1 1 2 2 2 3 3 3 2 2 2 1 1 1 1 1
2 3 3 2 3 2 1 5 4 3 2 1 2 2 2 3 2 1 1 1 2 2 1 2 1 1 2 2 2 2 2 2 2 1 0 0 2 2 2 2 2 2 2 2 2 2 2 1 0
3 3 3 2 0 3 0 4 5 3 2 2 2 2 2 2 2 2 1 1 1 1 1 1 1 2 2 2 2 3 2 1 1 1 0 1 1 2 1 2 2 2 2 2 2 2 1 2 1
3 1 1 1 1 2 1 3 7 1 3 4 3 2 2 3 2 2 2 2 1 1 2 2 2 2 2 2 2 2 2 1 1 1 1 1 1 1 1 1 1 2 2 2 2 2 2 2 2
2 3 3 3 3 3 5 5 7 3 4 3 2 2 2 2 1 1 1 2 2 2 2 2 2 2 2 1 2 2 2 2 2 1 1 1 0 1 1 1 0 1 2 2 2 2 2 2 2
3 4 3 3 1 6 2 4 8 4 2 3 3 2 1 1 1 1 2 2 2 2 2 1 2 2 2 1 1 1 1 2 2 2 1 1 0 1 1 0 0 1 1 2 2 2 2 2 2
3 5 6 5 5 4 2 6 6 3 1 1 2 2 1 1 1 1 1 1 1 1 1 1 1 1 2 1 0 0 1 1 1 1 1 2 1 1 1 1 1 1 1 1 1 1 2 2 2
3 3 3 4 1 2 5 5 5 1 1 2 1 2 1 0 0 1 1 1 1 1 0 0 1 1 1 1 1 0 0 0 1 1 1 1 1 1 1 0 0 1 1 1 1 1 2 2 2
2 3 3 4 3 4 5 5 5 4 3 1 1 1 1 0 0 0 0 0 0 0 0 1 1 0 1 1 1 0 0 0 1 1 1 1 1 1 1 1 1 1 1 1 1 1 1 1 2
2 2 2 2 3 4 4 7 4 5 4 4 3 3 2 2 1 1 0 0 0 1 1 1 1 1 1 1 2 1 1 1 0 1 2 2 2 2 2 2 2 2 2 2 2 2 2 2 2
3 5 5 4 4 3 3 8 2 2 2 3 3 3 2 2 1 1 0 0 1 1 1 1 1 1 1 1 2 2 1 1 1 1 2 2 2 2 2 2 2 2 3 3 3 3 3 3 3
Wind_Direction
332 335 43 54 56 54 235 260 249 13 37 355 65 92 102 102 123 143 146 114 110 131 155 145 134 130 128 125 125 122 121 118 117 117 116 114 112 110 108 107 105 104 103 101 100 99 97 96 95
335 353 52 61 90 114 263 259 229 242 199 134 62 70 73 69 55 88 64 119 125 131 135 140 131 129 128 126 127 128 126 124 121 122 121 118 116 115 113 111 108 106 104 103 101 99 98 97 95
335 54 78 79 122 180 214 249 206 231 28 63 61 54 91 106 77 136 230 144 119 121 129 134 128 131 130 128 126 129 129 127 126 126 125 123 120 119 119 116 114 112 109 108 105 103 100 98 96
51 50 57 84 188 221 204 244 218 105 30 40 86 63 65 30 206 198 137 119 112 104 116 137 126 134 130 131 128 130 131 131 130 129 129 125 122 121 118 115 115 114 113 112 110 106 102 98 98
63 79 79 106 231 245 249 277 7 73 43 22 76 95 54 343 32 93 102 107 111 99 84 128 123 133 135 136 132 133 134 132 134 133 133 127 125 122 118 115 113 113 117 117 115 111 104 101 103
65 77 111 203 234 255 274 289 149 49 326 5 85 110 167 339 65 82 93 108 116 114 99 109 125 123 134 138 137 137 139 137 136 133 135 131 127 124 123 119 115 114 116 117 117 113 106 103 105
111 113 163 187 214 257 255 244 132 155 74 288 134 121 192 302 9 78 86 98 99 101 98 81 106 121 134 135 135 135 140 138 135 132 133 129 125 126 125 122 118 117 117 116 112 109 105 101 105
127 116 155 195 197 237 268 109 134 136 177 327 102 141 198 226 187 90 83 82 82 77 72 73 68 99 126 145 134 132 129 133 131 123 123 126 127 127 124 120 118 118 115 116 114 109 98 90 94
98 95 191 203 190 218 297 64 18 46 86 35 41 145 195 146 118 94 80 65 70 72 52 52 57 78 103 141 142 133 130 130 123 120 121 120 120 124 126 119 116 115 113 115 113 106 93 76 78
97 156 210 217 185 173 22 56 126 60 43 30 21 19 73 110 118 119 116 114 101 90 53 48 60 70 98 122 127 124 118 121 115 113 117 111 109 111 115 117 115 114 109 109 103 90 80 64 57
135 179 200 276 221 129 49 357 356 122 223 217 191 173 126 118 122 128 131 141 153 155 123 67 82 79 90 91 113 109 98 103 106 111 111 112 107 106 103 110 111 108 101 93 84 66 51 55 60
136 201 189 236 323 78 74 25 13 220 231 209 176 156 147 142 147 154 153 157 134 122 125 96 90 87 80 89 104 114 110 111 112 116 117 121 121 116 116 107 105 97 88 88 83 69 35 51 72
176 212 230 231 67 92 82 55 204 266 255 115 120 126 144 155 154 158 153 133 112 112 75 122 99 107 105 97 104 110 118 119 119 117 115 115 126 133 128 123 117 111 105 112 97 68 66 64 63
174 161 280 277 251 247 150 285 262 253 208 124 130 146 161 163 166 154 128 130 139 145 131 43 91 122 118 119 125 119 133 133 128 124 124 121 128 134 136 134 131 127 133 144 148 150 130 161 105
93 59 339 285 217 217 117 319 250 234 145 138 150 161 163 180 164 171 183 175 168 166 152 120 123 89 101 117 125 119 125 138 137 140 133 129 130 136 138 140 138 146 146 133 103 86 78 67 48
71 73 286 283 186 179 139 254 264 225 148 176 191 182 184 201 180 179 173 150 138 131 125 111 108 85 77 93 108 118 123 137 144 145 143 143 141 137 138 145 149 148 137 126 121 96 79 64 49
57 180 222 276 231 156 169 242 269 229 162 198 208 197 200 205 199 218 205 149 123 118 118 102 92 104 104 105 110 106 110 116 141 144 147 153 150 145 141 146 148 140 129 122 136 94 104 81 340
206 203 218 236 269 147 211 251 272 266 181 216 215 206 202 206 226 221 204 145 113 111 105 96 79 78 92 96 79 77 81 89 109 137 146 150 149 146 140 137 130 130 127 117 108 101 59 106 237
173 175 230 254 262 203 232 254 261 256 241 232 232 221 214 224 231 204 178 138 103 91 88 89 85 70 83 84 104 112 119 127 122 112 114 126 141 146 140 136 134 141 148 149 133 113 85 33 30
165 173 262 300 323 237 251 270 266 247 234 215 208 215 216 223 281 72 111 117 124 123 101 89 82 84 95 78 121 139 150 121 108 106 99 135 123 142 145 144 149 152 146 135 129 108 104 49 59
210 194 207 248 330 342 315 296 267 267 243 228 229 216 206 194 189 170 111 89 75 79 101 113 99 91 74 66 77 80 68 58 51 45 51 101 128 135 133 143 150 154 152 161 172 158 144 157 292
228 222 203 212 89 286 150 279 272 247 259 246 249 248 233 218 202 181 149 119 108 87 62 96 106 90 73 84 97 110 122 131 192 192 156 64 83 102 116 137 145 160 167 171 185 170 175 159 182
210 223 194 212 179 293 255 232 280 261 246 256 246 238 228 215 200 168 149 145 123 98 90 68 65 65 64 84 99 114 123 135 110 78 80 65 40 71 79 107 140 168 183 187 190 182 181 183 183
151 57 34 43 82 261 227 198 272 236 226 243 250 238 237 225 193 155 117 97 81 66 69 75 67 42 49 82 96 105 129 133 113 90 104 72 0 355 29 76 141 202 199 194 208 205 193 202 196
90 97 41 355 331 249 231 206 251 253 232 208 208 225 243 179 143 128 103 88 76 67 57 65 87 48 33 71 99 136 148 162 173 178 180 174 244 302 301 326 242 231 225 211 200 203 216 216 207
175 149 164 197 224 274 292 236 253 278 305 147 173 182 124 100 121 147 154 141 121 79 50 50 65 54 36 33 12 100 160 177 199 205 201 208 220 235 267 276 270 272 248 234 213 219 233 229 225
154 187 178 143 196 267 266 280 299 268 13 35 70 102 104 94 105 118 144 139 141 131 129 133 101 49 35 23 7 74 18 219 214 205 211 224 243 241 243 249 313 305 281 254 228 231 251 246 234
159 152 119 145 177 248 275 263 249 246 237 242 253 271 258 252 99 69 101 146 147 143 6 51 86 84 352 358 345 40 296 244 247 219 212 221 234 235 229 241 257 279 283 271 242 242 256 254 261
156 157 158 163 181 185 251 263 229 212 212 218 231 245 245 223 206 226 301 52 100 45 29 32 43 40 4 351 349 335 304 308 298 259 247 237 238 227 220 226 232 240 248 252 243 244 242 242 257
193 191 167 177 227 203 217 266 287 204 208 198 233 255 241 222 212 198 217 82 73 25 358 343 340 346 328 332 337 317 295 303 284 271 265 254 246 242 234 232 236 244 248 241 233 237 233 235 245